Find Shiyan 33

NORAD ID: 68405 Int'l Des: 2026-064 Owner: ZXW Country: CN operational
LEOCIRCULARRETROGRADESSO

Live Position

Loading 3D Globe...

About Shiyan 33

Description loading...

Upcoming Passes

Passes for default location (London). Set your location on the main map for personalized predictions.

Altitude History

Loading altitude history...

Two-Line Element Set

1 68405U 26064A 26109.66956167 .00004614 00000-0 19657-3 0 9991
2 68405 97.4638 185.4932 0015136 147.5268 212.6903 15.23364490 3589
Epoch: Apr 19, 2026 • Age: 4 hours

Current Status

Altitude 528.3 km
Velocity 7.59 km/s
Sub-Earth Point -60.99°S, 43.4°E
Launch Date Mar 27, 2026
Age 23 days
Type other

Technical Details

Classification Payload
Mass 2500.00 kg
Dry Mass 2200.00 kg
Total Mass 2500.00 kg
Length 2.50 m
Diameter 0.80 m
Span 2.50 m
Shape Box + 2 Pan
Manufacturer CAST
Phase Status In Orbit
Owner/State ZXW/CN

Most Searched